AFL1432 UUEE-USCC

Flight info

Callsign AFL1432
Flight time 1h 58m
Altitude 35000
Route KOGOM3H KOGOM L94 EKPIR M864 INKEB/K0843F370 L94 NAMER T765 GEMKI L94 NOGRI T872 IMANA L749 LUTAT LUTAT2D
Aircraft A320/M-SDE3FGHIRWY/LB1

Departure

Time 2026-04-26 22:03
Airport Sheremetyevo International Airport (UUEE)

Arrival

Time 2026-04-27 00:02
Airport Kurchatov Chelyabinsk International Airport (USCC)
Time Latitude Longitude Altitude Speed Heading
2026-04-26 21:40 55.97885 37.41654 639 ft 0 kts 77°
2026-04-26 21:40 55.97885 37.41653 639 ft 0 kts 77°
2026-04-26 21:53 55.97881 37.41615 639 ft 4 kts 81°
2026-04-26 21:53 55.97878 37.41568 639 ft 4 kts 88°
2026-04-26 21:53 55.97879 37.41520 639 ft 4 kts 104°
2026-04-26 21:54 55.97889 37.41483 640 ft 4 kts 153°
2026-04-26 21:54 55.97894 37.41479 647 ft 0 kts 165°
2026-04-26 21:58 55.97869 37.41490 645 ft 8 kts 165°
2026-04-26 21:58 55.97809 37.41519 643 ft 8 kts 165°
2026-04-26 21:59 55.97742 37.41550 641 ft 12 kts 165°
2026-04-26 21:59 55.97652 37.41592 643 ft 13 kts 164°
2026-04-26 21:59 55.97611 37.41685 639 ft 8 kts 84°
2026-04-26 21:59 55.97623 37.41775 646 ft 9 kts 74°
2026-04-26 22:00 55.97645 37.41914 639 ft 16 kts 75°
2026-04-26 22:00 55.97685 37.42166 639 ft 23 kts 75°
2026-04-26 22:00 55.97725 37.42451 645 ft 25 kts 76°
2026-04-26 22:00 55.97775 37.42790 639 ft 30 kts 76°
2026-04-26 22:01 55.97828 37.43144 641 ft 29 kts 72°
2026-04-26 22:01 55.97878 37.43478 642 ft 27 kts 75°
2026-04-26 22:01 55.97923 37.43772 643 ft 18 kts 75°
2026-04-26 22:01 55.97946 37.43927 640 ft 10 kts 76°
2026-04-26 22:02 55.97931 37.44030 644 ft 10 kts 131°
2026-04-26 22:02 55.97863 37.44070 640 ft 12 kts 173°
2026-04-26 22:02 55.97786 37.44017 646 ft 15 kts 239°
2026-04-26 22:02 55.97747 37.43795 642 ft 25 kts 253°
2026-04-26 22:03 55.97647 37.43119 642 ft 89 kts 255°
2026-04-26 22:03 55.97444 37.41747 643 ft 139 kts 255°
2026-04-26 22:03 55.97112 37.39861 820 ft 169 kts 256°
2026-04-26 22:03 55.96771 37.37781 1374 ft 180 kts 258°
2026-04-26 22:04 55.96411 37.35638 2152 ft 179 kts 263°
2026-04-26 22:04 55.96083 37.33471 2699 ft 192 kts 265°
2026-04-26 22:04 55.95736 37.31070 3046 ft 209 kts 264°
2026-04-26 22:04 55.95350 37.28417 3368 ft 234 kts 263°
2026-04-26 22:05 55.94916 37.25505 3946 ft 249 kts 262°
2026-04-26 22:05 55.94451 37.22483 4714 ft 256 kts 261°
2026-04-26 22:05 55.93965 37.19383 5493 ft 262 kts 259°
2026-04-26 22:05 55.93457 37.16208 6252 ft 269 kts 258°
2026-04-26 22:06 55.92938 37.12968 6992 ft 275 kts 258°
2026-04-26 22:06 55.92410 37.09666 7775 ft 279 kts 258°
2026-04-26 22:06 55.91907 37.06288 8496 ft 284 kts 264°
2026-04-26 22:06 55.91920 37.02867 9245 ft 283 kts 284°
2026-04-26 22:07 55.92621 36.99575 9812 ft 285 kts 304°
2026-04-26 22:07 55.93917 36.96979 9952 ft 279 kts 325°
2026-04-26 22:07 55.95516 36.95018 9994 ft 281 kts 326°
2026-04-26 22:07 55.97207 36.93245 10004 ft 282 kts 339°
2026-04-26 22:08 55.99109 36.92505 10600 ft 286 kts 357°
2026-04-26 22:08 56.01096 36.92841 11358 ft 289 kts 15°
2026-04-26 22:08 56.02934 36.94329 12023 ft 294 kts 33°
2026-04-26 22:08 56.04657 36.96346 12689 ft 298 kts 34°
2026-04-26 22:09 56.06405 36.98402 13237 ft 304 kts 34°
2026-04-26 22:09 56.08165 37.00470 13342 ft 305 kts 36°
2026-04-26 22:09 56.09578 37.02563 13363 ft 303 kts 50°
2026-04-26 22:09 56.10783 37.05620 13362 ft 300 kts 65°
2026-04-26 22:10 56.11472 37.09214 13422 ft 315 kts 82°
2026-04-26 22:10 56.11582 37.13236 13541 ft 333 kts 95°
2026-04-26 22:10 56.11413 37.17511 13674 ft 352 kts 95°
2026-04-26 22:10 56.11233 37.21992 13821 ft 369 kts 96°
2026-04-26 22:11 56.11049 37.26580 14204 ft 377 kts 96°
2026-04-26 22:11 56.10860 37.31319 14739 ft 380 kts 95°
2026-04-26 22:11 56.10672 37.36074 15264 ft 382 kts 96°
2026-04-26 22:11 56.10485 37.40767 15844 ft 382 kts 96°
2026-04-26 22:12 56.10292 37.45548 16308 ft 387 kts 97°
2026-04-26 22:12 56.10095 37.50381 16780 ft 390 kts 97°
2026-04-26 22:12 56.09894 37.55246 17286 ft 393 kts 97°
2026-04-26 22:12 56.09689 37.60135 17774 ft 395 kts 97°
2026-04-26 22:13 56.09481 37.65050 18224 ft 397 kts 98°
2026-04-26 22:13 56.09268 37.69987 18641 ft 399 kts 98°
2026-04-26 22:13 56.09053 37.74948 19061 ft 402 kts 98°
2026-04-26 22:13 56.08836 37.79958 19477 ft 404 kts 98°
2026-04-26 22:14 56.08617 37.84975 19893 ft 406 kts 99°
2026-04-26 22:14 56.08392 37.90036 20316 ft 409 kts 99°
2026-04-26 22:14 56.08163 37.95127 20683 ft 411 kts 101°
2026-04-26 22:14 56.07933 38.00237 21073 ft 413 kts 102°
2026-04-26 22:15 56.07698 38.05371 21468 ft 415 kts 102°
2026-04-26 22:15 56.07458 38.10530 21840 ft 417 kts 102°
2026-04-26 22:15 56.07215 38.15726 22220 ft 420 kts 103°
2026-04-26 22:15 56.06968 38.20941 22580 ft 422 kts 103°
2026-04-26 22:16 56.06719 38.26192 22940 ft 424 kts 103°
2026-04-26 22:16 56.06468 38.31461 23229 ft 427 kts 103°
2026-04-26 22:16 56.06214 38.36775 23529 ft 429 kts 103°
2026-04-26 22:16 56.05955 38.42095 23829 ft 431 kts 103°
2026-04-26 22:17 56.05690 38.47461 24106 ft 433 kts 103°
2026-04-26 22:17 56.05423 38.52843 24335 ft 436 kts 104°
2026-04-26 22:17 56.05151 38.58253 24605 ft 438 kts 104°
2026-04-26 22:17 56.04875 38.63691 24805 ft 441 kts 103°
2026-04-26 22:18 56.04599 38.69099 25040 ft 443 kts 103°
2026-04-26 22:18 56.04316 38.74595 25273 ft 445 kts 103°
2026-04-26 22:18 56.04031 38.80116 25528 ft 447 kts 103°
2026-04-26 22:18 56.03742 38.85680 25783 ft 450 kts 103°
2026-04-26 22:19 56.03450 38.91258 26027 ft 452 kts 103°
2026-04-26 22:19 56.03155 38.96845 26344 ft 452 kts 103°
2026-04-26 22:19 56.02858 39.02433 26676 ft 451 kts 103°
2026-04-26 22:19 56.02557 39.08019 27024 ft 451 kts 104°
2026-04-26 22:20 56.02252 39.13588 27378 ft 451 kts 104°
2026-04-26 22:20 56.02045 39.17353 27610 ft 451 kts 104°
2026-04-26 22:20 56.01637 39.24729 28087 ft 450 kts 104°
2026-04-26 22:20 56.01324 39.30304 28339 ft 451 kts 104°
2026-04-26 22:21 56.01006 39.35883 28620 ft 452 kts 104°
2026-04-26 22:21 56.00680 39.41554 28954 ft 453 kts 104°
2026-04-26 22:21 56.00358 39.47150 29305 ft 452 kts 104°
2026-04-26 22:21 56.00039 39.52664 29585 ft 452 kts 104°
2026-04-26 22:22 55.99744 39.58259 29794 ft 456 kts 100°
2026-04-26 22:22 55.99842 39.63994 30035 ft 467 kts 90°
2026-04-26 22:22 56.00486 39.69729 30291 ft 476 kts 79°
2026-04-26 22:22 56.01647 39.75289 30555 ft 482 kts 74°
2026-04-26 22:23 56.02636 39.80970 30836 ft 473 kts 84°
2026-04-26 22:23 56.03039 39.86747 31135 ft 464 kts 94°
2026-04-26 22:23 56.03072 39.92492 31415 ft 462 kts 95°
2026-04-26 22:23 56.03111 39.98244 31700 ft 463 kts 94°
2026-04-26 22:24 56.03179 40.03994 31940 ft 463 kts 94°
2026-04-26 22:24 56.03264 40.09783 32143 ft 466 kts 94°
2026-04-26 22:24 56.03357 40.15581 32366 ft 467 kts 94°
2026-04-26 22:24 56.03446 40.21386 32639 ft 468 kts 94°
2026-04-26 22:25 56.03526 40.27199 32921 ft 468 kts 94°
2026-04-26 22:25 56.03594 40.32948 33177 ft 468 kts 94°
2026-04-26 22:25 56.03654 40.38768 33379 ft 469 kts 94°
2026-04-26 22:25 56.03712 40.44677 33576 ft 470 kts 94°
2026-04-26 22:26 56.03768 40.50447 33790 ft 470 kts 94°
2026-04-26 22:26 56.03823 40.56295 34001 ft 471 kts 94°
2026-04-26 22:26 56.03874 40.62150 34213 ft 471 kts 94°
2026-04-26 22:26 56.03923 40.68017 34417 ft 471 kts 94°
2026-04-26 22:27 56.03968 40.73869 34621 ft 472 kts 93°
2026-04-26 22:27 56.04012 40.79750 34796 ft 472 kts 94°
2026-04-26 22:27 56.04053 40.85610 34938 ft 473 kts 94°
2026-04-26 22:27 56.04092 40.91510 35105 ft 474 kts 94°
2026-04-26 22:28 56.04127 40.97418 35285 ft 475 kts 94°
2026-04-26 22:28 56.04158 41.03320 35469 ft 475 kts 94°
2026-04-26 22:28 56.04184 41.09219 35649 ft 475 kts 94°
2026-04-26 22:28 56.04210 41.15129 35844 ft 475 kts 94°
2026-04-26 22:29 56.04237 41.21040 36018 ft 475 kts 94°
2026-04-26 22:29 56.04257 41.26949 36202 ft 475 kts 94°
2026-04-26 22:29 56.04292 41.38824 36264 ft 479 kts 94°
2026-04-26 22:30 56.04318 41.50757 36272 ft 480 kts 94°
2026-04-26 22:30 56.04332 41.62683 36287 ft 480 kts 94°
2026-04-26 22:31 56.04331 41.74546 36288 ft 480 kts 94°
2026-04-26 22:31 56.04315 41.86495 36284 ft 480 kts 94°
2026-04-26 22:32 56.04290 41.98442 36306 ft 480 kts 94°
2026-04-26 22:32 56.04262 42.10396 36307 ft 480 kts 94°
2026-04-26 22:33 56.04185 42.28292 36331 ft 480 kts 95°
2026-04-26 22:34 56.04115 42.40232 36312 ft 480 kts 95°
2026-04-26 22:34 56.04032 42.52159 36321 ft 480 kts 95°
2026-04-26 22:35 56.03926 42.64111 36352 ft 480 kts 95°
2026-04-26 22:35 56.03772 42.76028 36356 ft 480 kts 96°
2026-04-26 22:36 56.03595 42.87958 36353 ft 480 kts 96°
2026-04-26 22:36 56.03420 42.99879 36367 ft 479 kts 96°
2026-04-26 22:37 56.03239 43.11800 36367 ft 479 kts 96°
2026-04-26 22:37 56.03042 43.23630 36379 ft 479 kts 96°
2026-04-26 22:38 56.02987 43.35565 36393 ft 483 kts 88°
2026-04-26 22:38 56.03808 43.47505 36392 ft 484 kts 86°
2026-04-26 22:39 56.04626 43.59464 36398 ft 484 kts 87°
2026-04-26 22:39 56.05429 43.71423 36389 ft 484 kts 87°
2026-04-26 22:40 56.06207 43.83380 36400 ft 483 kts 87°
2026-04-26 22:40 56.06979 43.95336 36371 ft 483 kts 88°
2026-04-26 22:41 56.07743 44.07288 36397 ft 484 kts 88°
2026-04-26 22:41 56.08490 44.19279 36413 ft 485 kts 88°
2026-04-26 22:42 56.09234 44.31299 36428 ft 486 kts 88°
2026-04-26 22:42 56.09967 44.43316 36429 ft 486 kts 88°
2026-04-26 22:43 56.10688 44.55356 36439 ft 486 kts 88°
2026-04-26 22:43 56.11249 44.67324 36459 ft 482 kts 96°
2026-04-26 22:44 56.11012 44.79284 36475 ft 481 kts 97°
2026-04-26 22:44 56.10766 44.91265 36445 ft 481 kts 97°
2026-04-26 22:45 56.10511 45.03268 36475 ft 482 kts 97°
2026-04-26 22:45 56.10232 45.15257 36490 ft 482 kts 97°
2026-04-26 22:46 56.09942 45.27273 36506 ft 483 kts 97°
2026-04-26 22:46 56.09651 45.39279 36534 ft 483 kts 97°
2026-04-26 22:47 56.09402 45.49271 36533 ft 483 kts 97°
2026-04-26 22:47 56.09085 45.61286 36520 ft 483 kts 98°
2026-04-26 22:48 56.08763 45.73296 36531 ft 483 kts 98°
2026-04-26 22:48 56.08425 45.85317 36534 ft 483 kts 98°
2026-04-26 22:49 56.08079 45.97236 36548 ft 483 kts 98°
2026-04-26 22:49 56.07717 46.09328 36553 ft 483 kts 98°
2026-04-26 22:50 56.07346 46.21242 36558 ft 483 kts 98°
2026-04-26 22:50 56.06954 46.33251 36560 ft 483 kts 98°
2026-04-26 22:51 56.06555 46.45265 36540 ft 484 kts 98°
2026-04-26 22:51 56.06232 46.57309 36560 ft 486 kts 95°
2026-04-26 22:52 56.06342 46.69434 36566 ft 488 kts 92°
2026-04-26 22:52 56.06613 46.81578 36577 ft 488 kts 92°
2026-04-26 22:53 56.06787 46.93705 36598 ft 488 kts 94°
2026-04-26 22:53 56.06853 47.05845 36608 ft 488 kts 94°
2026-04-26 22:54 56.06897 47.17987 36574 ft 488 kts 94°
2026-04-26 22:54 56.06957 47.30041 36588 ft 488 kts 94°
2026-04-26 22:55 56.07020 47.42213 36599 ft 489 kts 94°
2026-04-26 22:55 56.07070 47.54385 36609 ft 489 kts 94°
2026-04-26 22:56 56.07096 47.66557 36621 ft 489 kts 94°
2026-04-26 22:56 56.07111 47.78736 36630 ft 490 kts 94°
2026-04-26 22:57 56.07115 47.90928 36653 ft 490 kts 94°
2026-04-26 22:57 56.07114 48.03113 36626 ft 490 kts 94°
2026-04-26 22:58 56.07099 48.15301 36639 ft 490 kts 95°
2026-04-26 22:58 56.07080 48.27512 36677 ft 491 kts 95°
2026-04-26 22:59 56.07054 48.39740 36680 ft 491 kts 95°
2026-04-26 22:59 56.06998 48.51973 36690 ft 492 kts 95°
2026-04-26 23:00 56.06921 48.64213 36701 ft 492 kts 95°
2026-04-26 23:00 56.06846 48.76452 36707 ft 492 kts 95°
2026-04-26 23:01 56.06760 48.88619 36708 ft 492 kts 95°
2026-04-26 23:01 56.06665 49.00943 36714 ft 492 kts 95°
2026-04-26 23:02 56.06553 49.13121 36724 ft 493 kts 95°
2026-04-26 23:02 56.06427 49.25376 36742 ft 493 kts 95°
2026-04-26 23:03 56.06292 49.37630 36742 ft 493 kts 95°
2026-04-26 23:03 56.06151 49.49902 36752 ft 493 kts 95°
2026-04-26 23:04 56.05994 49.62178 36762 ft 493 kts 95°
2026-04-26 23:04 56.05817 49.74446 36738 ft 493 kts 95°
2026-04-26 23:05 56.05633 49.86711 36759 ft 493 kts 95°
2026-04-26 23:05 56.05446 49.98970 36774 ft 493 kts 95°
2026-04-26 23:06 56.05236 50.11227 36782 ft 493 kts 95°
2026-04-26 23:06 56.05009 50.23495 36795 ft 493 kts 95°
2026-04-26 23:07 56.04778 50.35750 36795 ft 493 kts 96°
2026-04-26 23:07 56.04536 50.48001 36802 ft 493 kts 96°
2026-04-26 23:08 56.04288 50.60259 36788 ft 493 kts 96°
2026-04-26 23:08 56.04021 50.72428 36800 ft 493 kts 96°
2026-04-26 23:09 56.03730 50.84667 36805 ft 493 kts 95°
2026-04-26 23:09 56.03661 50.96950 36814 ft 495 kts 92°
2026-04-26 23:10 56.03808 51.09264 36822 ft 495 kts 91°
2026-04-26 23:10 56.03926 51.21565 36824 ft 495 kts 92°
2026-04-26 23:11 56.03953 51.33861 36834 ft 495 kts 93°
2026-04-26 23:11 56.03940 51.46165 36846 ft 495 kts 93°
2026-04-26 23:12 56.03925 51.58435 36852 ft 495 kts 93°
2026-04-26 23:12 56.03911 51.70766 36856 ft 495 kts 93°
2026-04-26 23:13 56.03891 51.83078 36859 ft 496 kts 92°
2026-04-26 23:13 56.04167 51.95426 36859 ft 497 kts 88°
2026-04-26 23:14 56.04718 52.07752 36856 ft 497 kts 88°
2026-04-26 23:14 56.05240 52.20079 36861 ft 497 kts 88°
2026-04-26 23:15 56.05657 52.32414 36859 ft 497 kts 89°
2026-04-26 23:15 56.06020 52.44763 36836 ft 497 kts 89°
2026-04-26 23:16 56.06374 52.57127 36852 ft 497 kts 89°
2026-04-26 23:16 56.06739 52.69496 36868 ft 498 kts 89°
2026-04-26 23:17 56.07075 52.81863 36867 ft 498 kts 90°
2026-04-26 23:17 56.07382 52.94246 36886 ft 498 kts 90°
2026-04-26 23:18 56.07669 53.06640 36888 ft 498 kts 90°
2026-04-26 23:18 56.07947 53.18923 36891 ft 498 kts 90°
2026-04-26 23:19 56.08221 53.31330 36904 ft 498 kts 90°
2026-04-26 23:19 56.08480 53.43707 36870 ft 498 kts 90°
2026-04-26 23:20 56.08727 53.56086 36886 ft 498 kts 90°
2026-04-26 23:20 56.08972 53.68466 36900 ft 497 kts 90°
2026-04-26 23:21 56.09198 53.80859 36916 ft 498 kts 90°
2026-04-26 23:21 56.09410 53.93234 36921 ft 498 kts 90°
2026-04-26 23:22 56.09608 54.05624 36932 ft 497 kts 90°
2026-04-26 23:22 56.09797 54.18010 36933 ft 498 kts 90°
2026-04-26 23:23 56.09966 54.30413 36931 ft 498 kts 91°
2026-04-26 23:23 56.09193 54.42633 36921 ft 493 kts 104°
2026-04-26 23:24 56.07882 54.54680 36922 ft 493 kts 103°
2026-04-26 23:24 56.06575 54.66720 36931 ft 493 kts 104°
2026-04-26 23:25 56.05262 54.78688 36938 ft 493 kts 104°
2026-04-26 23:25 56.03920 54.90721 36941 ft 493 kts 104°
2026-04-26 23:26 56.02560 55.02749 36953 ft 494 kts 104°
2026-04-26 23:26 56.01195 55.14765 36953 ft 494 kts 104°
2026-04-26 23:27 55.99823 55.26783 36944 ft 493 kts 104°
2026-04-26 23:27 55.98435 55.38779 36954 ft 493 kts 104°
2026-04-26 23:28 55.97032 55.50772 36958 ft 493 kts 104°
2026-04-26 23:28 55.95621 55.62759 36966 ft 493 kts 104°
2026-04-26 23:29 55.94206 55.74732 36972 ft 493 kts 104°
2026-04-26 23:29 55.92778 55.86705 36970 ft 494 kts 104°
2026-04-26 23:30 55.91335 55.98670 36968 ft 493 kts 104°
2026-04-26 23:30 55.89878 56.10611 36984 ft 493 kts 104°
2026-04-26 23:31 55.88409 56.22548 37001 ft 493 kts 104°
2026-04-26 23:31 55.86925 56.34474 37009 ft 493 kts 104°
2026-04-26 23:32 55.85438 56.46388 36991 ft 493 kts 104°
2026-04-26 23:32 55.83943 56.58301 37017 ft 493 kts 104°
2026-04-26 23:33 55.82447 56.70107 37010 ft 493 kts 104°
2026-04-26 23:33 55.80921 56.81973 37015 ft 493 kts 105°
2026-04-26 23:34 55.79441 56.93399 37015 ft 493 kts 105°
2026-04-26 23:34 55.77900 57.05287 37045 ft 493 kts 105°
2026-04-26 23:35 55.76348 57.17143 37040 ft 493 kts 105°
2026-04-26 23:35 55.74785 57.29011 37047 ft 494 kts 105°
2026-04-26 23:36 55.73207 57.40869 37058 ft 494 kts 105°
2026-04-26 23:36 55.71621 57.52725 37072 ft 494 kts 105°
2026-04-26 23:37 55.70017 57.64552 37074 ft 494 kts 105°
2026-04-26 23:37 55.68400 57.76391 37074 ft 494 kts 105°
2026-04-26 23:38 55.66778 57.88193 37073 ft 493 kts 105°
2026-04-26 23:38 55.65138 57.99999 37078 ft 493 kts 105°
2026-04-26 23:39 55.63773 58.09804 37060 ft 493 kts 105°
2026-04-26 23:39 55.62127 58.21589 37074 ft 493 kts 105°
2026-04-26 23:40 55.60466 58.33359 37081 ft 493 kts 105°
2026-04-26 23:40 55.58791 58.45112 37074 ft 493 kts 105°
2026-04-26 23:41 55.57106 58.56856 37076 ft 493 kts 105°
2026-04-26 23:41 55.56258 58.62736 36876 ft 494 kts 105°
2026-04-26 23:41 55.55411 58.68588 36619 ft 493 kts 106°
2026-04-26 23:41 55.54554 58.74486 36361 ft 493 kts 106°
2026-04-26 23:42 55.53698 58.80339 36095 ft 493 kts 106°
2026-04-26 23:42 55.51982 58.92014 35593 ft 493 kts 106°
2026-04-26 23:42 55.51117 58.97871 35357 ft 493 kts 106°
2026-04-26 23:43 55.50249 59.03728 35123 ft 493 kts 106°
2026-04-26 23:43 55.49380 59.09593 34892 ft 494 kts 106°
2026-04-26 23:43 55.48506 59.15447 34656 ft 495 kts 106°
2026-04-26 23:43 55.47622 59.21325 34423 ft 496 kts 106°
2026-04-26 23:44 55.46735 59.27201 34190 ft 496 kts 106°
2026-04-26 23:44 55.45846 59.33085 33928 ft 497 kts 106°
2026-04-26 23:44 55.44965 59.38896 33661 ft 498 kts 106°
2026-04-26 23:44 55.44058 59.44865 33379 ft 498 kts 106°
2026-04-26 23:45 55.43161 59.50761 33103 ft 499 kts 106°
2026-04-26 23:45 55.42261 59.56652 32845 ft 500 kts 106°
2026-04-26 23:45 55.41363 59.62481 32585 ft 500 kts 106°
2026-04-26 23:45 55.40449 59.68388 32317 ft 501 kts 106°
2026-04-26 23:46 55.39643 59.74359 31695 ft 503 kts 100°
2026-04-26 23:46 55.39313 59.80551 30502 ft 513 kts 89°
2026-04-26 23:46 55.39475 59.86824 29330 ft 517 kts 85°
2026-04-26 23:46 55.39696 59.93179 28100 ft 521 kts 85°
2026-04-26 23:47 55.39898 59.99548 26922 ft 523 kts 86°
2026-04-26 23:47 55.40078 60.05919 25688 ft 516 kts 86°
2026-04-26 23:47 55.40240 60.12172 24360 ft 506 kts 86°
2026-04-26 23:47 55.40387 60.18259 23074 ft 496 kts 87°
2026-04-26 23:48 55.40477 60.23973 22244 ft 477 kts 88°
2026-04-26 23:48 55.40523 60.29766 21426 ft 471 kts 89°
2026-04-26 23:48 55.40543 60.35525 20594 ft 470 kts 89°
2026-04-26 23:48 55.40554 60.41253 19785 ft 468 kts 89°
2026-04-26 23:49 55.40570 60.46973 18972 ft 466 kts 89°
2026-04-26 23:49 55.40595 60.52661 18163 ft 465 kts 89°
2026-04-26 23:49 55.40628 60.58334 17353 ft 461 kts 89°
2026-04-26 23:49 55.40663 60.63946 16610 ft 456 kts 89°
2026-04-26 23:50 55.40697 60.69488 15898 ft 451 kts 89°
2026-04-26 23:50 55.40727 60.74991 15182 ft 447 kts 89°
2026-04-26 23:50 55.40751 60.80424 14497 ft 442 kts 89°
2026-04-26 23:50 55.40779 60.85793 13834 ft 437 kts 89°
2026-04-26 23:51 55.40834 60.91099 13136 ft 430 kts 89°
2026-04-26 23:51 55.40904 60.96320 12513 ft 423 kts 88°
2026-04-26 23:51 55.40978 61.01457 11880 ft 416 kts 88°
2026-04-26 23:51 55.41048 61.06493 11395 ft 406 kts 88°
2026-04-26 23:52 55.41108 61.11351 11269 ft 388 kts 88°
2026-04-26 23:52 55.41158 61.15999 11139 ft 372 kts 88°
2026-04-26 23:52 55.41201 61.20445 11011 ft 356 kts 88°
2026-04-26 23:52 55.41241 61.24725 10884 ft 343 kts 88°
2026-04-26 23:53 55.41278 61.28843 10758 ft 331 kts 88°
2026-04-26 23:53 55.41314 61.32772 10634 ft 320 kts 88°
2026-04-26 23:53 55.41350 61.36620 10472 ft 311 kts 88°
2026-04-26 23:53 55.41384 61.40397 10274 ft 305 kts 88°
2026-04-26 23:54 55.41415 61.44139 10185 ft 305 kts 88°
2026-04-26 23:54 55.41440 61.47871 10053 ft 304 kts 88°
2026-04-26 23:54 55.41465 61.51611 9594 ft 306 kts 88°
2026-04-26 23:54 55.41491 61.55351 9218 ft 304 kts 88°
2026-04-26 23:55 55.41384 61.59059 8804 ft 304 kts 99°
2026-04-26 23:55 55.40804 61.62604 8374 ft 302 kts 112°
2026-04-26 23:55 55.40006 61.66027 7969 ft 301 kts 112°
2026-04-26 23:55 55.39218 61.69428 7551 ft 300 kts 112°
2026-04-26 23:56 55.38435 61.72823 7136 ft 299 kts 112°
2026-04-26 23:56 55.37656 61.76210 6721 ft 298 kts 112°
2026-04-26 23:56 55.36890 61.79541 6337 ft 287 kts 112°
2026-04-26 23:56 55.35985 61.82574 5847 ft 276 kts 133°
2026-04-26 23:57 55.34472 61.84416 5461 ft 257 kts 166°
2026-04-26 23:57 55.32797 61.84686 5092 ft 239 kts 195°
2026-04-26 23:57 55.31313 61.83609 4743 ft 229 kts 219°
2026-04-26 23:57 55.30032 61.81987 4382 ft 224 kts 220°
2026-04-26 23:58 55.28787 61.80415 4050 ft 217 kts 219°
2026-04-26 23:58 55.27664 61.78752 3729 ft 206 kts 237°
2026-04-26 23:58 55.27149 61.76522 3445 ft 195 kts 266°
2026-04-26 23:58 55.27304 61.74239 3199 ft 187 kts 283°
2026-04-26 23:59 55.27608 61.72089 2972 ft 175 kts 283°
2026-04-26 23:59 55.27880 61.70095 2744 ft 161 kts 281°
2026-04-26 23:59 55.28108 61.68271 2565 ft 144 kts 282°
2026-04-26 23:59 55.28329 61.66605 2388 ft 137 kts 282°
2026-04-27 00:00 55.28548 61.64998 2210 ft 134 kts 282°
2026-04-27 00:00 55.28765 61.63423 2033 ft 132 kts 282°
2026-04-27 00:00 55.28985 61.61855 1861 ft 132 kts 281°
2026-04-27 00:00 55.29208 61.60297 1671 ft 132 kts 281°
2026-04-27 00:01 55.29416 61.58728 1446 ft 133 kts 283°
2026-04-27 00:01 55.29652 61.57149 1261 ft 134 kts 281°
2026-04-27 00:01 55.29859 61.55551 1079 ft 134 kts 282°
2026-04-27 00:01 55.30080 61.53968 903 ft 136 kts 283°
2026-04-27 00:02 55.30296 61.52409 752 ft 133 kts 282°
2026-04-27 00:02 55.30480 61.51057 749 ft 90 kts 283°
2026-04-27 00:02 55.30585 61.50277 750 ft 41 kts 284°
2026-04-27 00:02 55.30632 61.49973 753 ft 23 kts 285°
2026-04-27 00:03 55.30670 61.49699 752 ft 26 kts 284°
2026-04-27 00:03 55.30717 61.49369 754 ft 28 kts 283°
2026-04-27 00:03 55.30760 61.49047 755 ft 27 kts 283°
2026-04-27 00:03 55.30802 61.48733 752 ft 27 kts 283°
2026-04-27 00:04 55.30843 61.48429 751 ft 23 kts 283°
2026-04-27 00:04 55.30837 61.48215 755 ft 17 kts 218°
2026-04-27 00:04 55.30777 61.48182 751 ft 1 kts 193°
2026-04-27 00:04 55.30764 61.48177 750 ft 3 kts 193°
2026-04-27 00:05 55.30740 61.48168 748 ft 4 kts 192°
2026-04-27 00:05 55.30672 61.48217 749 ft 19 kts 126°
2026-04-27 00:05 55.30642 61.48504 750 ft 27 kts 104°
2026-04-27 00:05 55.30596 61.48851 745 ft 31 kts 104°
2026-04-27 00:06 55.30540 61.49231 747 ft 34 kts 103°
2026-04-27 00:06 55.30483 61.49634 747 ft 33 kts 104°
2026-04-27 00:06 55.30437 61.49968 746 ft 22 kts 104°
2026-04-27 00:06 55.30382 61.50113 745 ft 15 kts 178°
2026-04-27 00:07 55.30271 61.50070 747 ft 18 kts 194°
2026-04-27 00:07 55.30145 61.50017 747 ft 16 kts 193°
2026-04-27 00:07 55.30078 61.50141 748 ft 17 kts 102°
2026-04-27 00:07 55.30048 61.50344 745 ft 17 kts 104°
2026-04-27 00:08 55.30020 61.50549 745 ft 17 kts 103°
2026-04-27 00:08 55.29994 61.50743 749 ft 16 kts 103°
2026-04-27 00:08 55.29975 61.50836 747 ft 1 kts 128°
2026-04-27 00:08 55.29966 61.50847 749 ft 3 kts 151°
2026-04-27 00:09 55.29942 61.50848 747 ft 2 kts 188°
2026-04-27 00:09 55.29921 61.50840 746 ft 2 kts 193°
2026-04-27 00:09 55.29912 61.50836 747 ft 1 kts 193°
2026-04-27 00:09 55.29907 61.50834 748 ft 1 kts 194°
2026-04-27 00:10 55.29906 61.50834 748 ft 0 kts 193°